Regional Weather Roundup
Issued by NWS

Home | Current Version | Previous Version | Graphics & Text | Print | Product List | Glossary On
Versions: 1 2 3 4 5 6 7 8 9 10 11 12 13 14 15 16 17 18 19 20 21 22 23 24 25 26 27 28 29 30 31 32 33 34 35 36 37 38 39 40 41 42 43 44 45 46 47 48 49 50
000
ASUS45 KBOU 011507
RWRCO

WEATHER ROUNDUP FOR COLORADO
NATIONAL WEATHER SERVICE DENVER/BOULDER CO
900 AM MDT MON JUN 01 2015

NOTE: "FAIR" INDICATES FEW OR NO CLOUDS BELOW 12000 FEET WITH NO
SIGNIFICANT WEATHER AND/OR OBSTRUCTIONS TO VISIBILITY.

COZ001>005-013-030-031-011600-
...NORTHWEST COLORADO...

CITY           SKY/WX    TMP DP  RH WIND       PRES   REMARKS
CRAIG          MOSUNNY   65  45  48 NE8       30.16F
HAYDEN         PTSUNNY   61  39  44 E17       30.19S
MEEKER         MOSUNNY   64  44  48 CALM      30.18S
MOUNT WERNER   NOT AVBL
STEAMBOAT SPGS PTSUNNY   57  40  52 NE6       30.22F
WALDEN         MOSUNNY   55  39  54 SE6       30.30S
$$

COZ006>008-011-011600-
...WEST CENTRAL VALLEYS...

CITY           SKY/WX    TMP DP  RH WIND       PRES   REMARKS
GRAND JUNCTION SUNNY     71  42  35 SE20G31   30.07F
MONTROSE       MOSUNNY   72  40  31 E7        30.18F
EAGLE          MOSUNNY   66  50  55 CALM      30.28F
RIFLE          MOSUNNY   63  46  54 CALM      30.16S
DELTA          MOSUNNY   71  44  37 E6        30.15S
NUCLA          MOSUNNY   70  41  35 N5        30.20S
$$

COZ017>023-064>068-011600-
...SOUTHWEST COLORADO...

CITY           SKY/WX    TMP DP  RH WIND       PRES   REMARKS
DURANGO        PTSUNNY   67  45  45 E7        30.28R
CORTEZ         PTSUNNY   70  45  40 CALM      30.20R
PAGOSA SPRINGS LGT RAIN  59  41  52 SE9       30.38S
TELLURIDE      CLOUDY    59  38  47 CALM      30.41S
WOLF CREEK PAS NOT AVBL
$$

COZ009-010-012-014-032>034-037-058>063-011600-
...CENTRAL COLORADO...

CITY           SKY/WX    TMP DP  RH WIND       PRES   REMARKS
ASPEN          MOSUNNY   58  39  49 N7        30.29R
BUENA VISTA    SUNNY     60  35  38 CALM      30.33F
COPPER MTN     NOT AVBL
BERTHOUD PASS  FAIR      41  34  75 NW15G26   30.60R
COTTONWOOD PAS NOT AVBL
GUNNISON       PTSUNNY   54  37  54 CALM      30.40S
KREMMLING      PTSUNNY   54  41  62 SE5       30.32S
LEADVILLE      SUNNY     53  33  46 CALM      30.42F
MONARCH PASS   MOSUNNY   45  32  61 SW22      30.69R
SALIDA         SUNNY     61  39  44 NW6       30.37F
SUNLIGHT       MOSUNNY   52  34  50 CALM      30.50S
WILKERSON PASS MOSUNNY   50  28  43 CALM      30.55S
$$

COZ069>075-011600-
...SAN LUIS VALLEY/SANGRE DE CRISTO MOUNTAINS...

CITY           SKY/WX    TMP DP  RH WIND       PRES   REMARKS
ALAMOSA        SUNNY     61  40  45 N7        30.33S
LA VETA PASS   SUNNY    N/A N/A N/A MISG      30.46S
SAGUACHE       MOSUNNY   59  39  47 NW5       30.36S
$$

COZ035-036-038>040-011600-
...NORTHERN COLORADO FRONT RANGE...

CITY           SKY/WX    TMP DP  RH WIND       PRES   REMARKS
DENVER INTL AP MOSUNNY   72  46  39 W12       30.10S
DMNS CITY PARK   N/A     72  44  35 S8        30.10F
AURORA         MOSUNNY   70  46  41 SW7       30.13R
FRONT RANGE AP MOSUNNY   73  52  46 W6        30.12S
ERIE MUNI ARPT MOSUNNY   67  55  66 CALM      30.09S
BOULDER MUN AP MOSUNNY   66  50  55 CALM      30.10S
CENTENNIAL     MOSUNNY   72  43  35 SW8       30.14R
BROOMFIELD     MOSUNNY   70  45  40 CALM      30.12F
FORT COLLINS   MOSUNNY   63  52  67 N6        30.11R
LONGMONT       MOSUNNY   70  52  52 CALM      30.11S
$$

COZ041-046-047-076>085-087-088-011600-
...PIKES PEAK/PALMER DIVIDE AND SOUTHERN FOOTHILLS...

CITY           SKY/WX    TMP DP  RH WIND       PRES   REMARKS
COLO. SPRINGS  MOSUNNY   71  45  39 SE5       30.18S
A. F. ACADEMY  MOSUNNY   71  48  44 VRB1      30.18S
ELLICOTT       SUNNY    N/A N/A N/A SW3       30.16S
FALCON         SUNNY     72  37  27 SW3       30.22S
FORT CARSON    NOT AVBL
LIMON          SUNNY     68  55  63 CALM      30.12F
MONUMENT HILL  SUNNY     70  37  30 E3        30.23S
TRINIDAD       SUNNY     70  51  51 SW9       30.16R
$$

COZ042>045-048>051-090-091-011600-
...NORTHEAST COLORADO...

CITY           SKY/WX    TMP DP  RH WIND       PRES   REMARKS
GREELEY ARPT   SUNNY     63  54  72 W5        30.09S
AKRON          SUNNY     73  54  51 CALM      30.08S
BURLINGTON     SUNNY     73  55  53 CALM      30.07F
WRAY           SUNNY     68  58  69 E5        30.06R
STERLING       SUNNY     64  59  82 SE3       30.05F
HOLYOKE        NOT AVBL
FORT MORGAN    SUNNY     67 -14   3 CALM      30.08S
$$

COZ086-089-092>099-011600-
...SOUTHEAST COLORADO...

CITY           SKY/WX    TMP DP  RH WIND       PRES   REMARKS
PUEBLO         SUNNY     67  50  54 W8        30.10S
LA JUNTA       SUNNY     69  56  62 VRB6      30.07F
LAMAR          SUNNY     70  54  56 VRB3      30.05F
SPRINGFIELD      N/A     74  56  53 SW13      30.08S
$$



USA.gov is the U.S. government's official web portal to all federal, state and local government web resources and services.